,,,PA_Meas_PMT16A,,PR_Meas_QMR101_102,,RH_Meas_QMH101,,SR_Meas_QMS101,,TA_Meas_QMH101,,GenWind,,GenWind,
date,time,status,PA,status,PR,status,RH,status,SR,status,TA,status,DirAvg,status,SpdAvg,
2012-12-16, 00:00:04,VALID,1010.52,VALID,0,VALID,104,VALID,0,VALID,23.5966,VALID,140,VALID,0.765625,
2012-12-16, 00:01:04,VALID,1010.5,VALID,0,VALID,104,VALID,0,VALID,23.6179,VALID,140,VALID,0.749609,
2012-12-16, 00:02:04,VALID,1010.53,VALID,0,VALID,104,VALID,0,VALID,23.5966,VALID,142,VALID,0.412109,
2012-12-16, 00:03:04,VALID,1010.5,VALID,0,VALID,104,VALID,0,VALID,23.6179,VALID,131,VALID,0.346875,
2012-12-16, 00:04:04,VALID,1010.53,VALID,0,VALID,104,VALID,0,VALID,23.5576,VALID,131,VALID,0.273047,
2012-12-16, 00:05:04,VALID,1010.57,VALID,0,VALID,104,VALID,0,VALID,23.5771,VALID,131,VALID,0.220703,
2012-12-16, 00:06:04,VALID,1010.59,VALID,0,VALID,104,VALID,0,VALID,23.5771,VALID,131,VALID,0.55625,
2012-12-16, 00:07:04,VALID,1010.61,VALID,0,VALID,104,VALID,0,VALID,23.6179,VALID,130,VALID,0.467187,
2012-12-16, 00:08:04,VALID,1010.63,VALID,0,VALID,104,VALID,0,VALID,23.5771,VALID,129,VALID,0.457031,
2012-12-16, 00:09:04,VALID,1010.63,VALID,0,VALID,104,VALID,0,VALID,23.6161,VALID,129,VALID,0.432422,
2012-12-16, 00:10:04,VALID,1010.67,VALID,0,VALID,104,VALID,0,VALID,23.6568,VALID,135,VALID,0.78125,
2012-12-16, 00:11:04,VALID,1010.68,VALID,0,VALID,104,VALID,0,VALID,23.6356,VALID,134,VALID,0.359766,
2012-12-16, 00:12:04,VALID,1010.68,VALID,0,VALID,104,VALID,0,VALID,23.655,VALID,134,VALID,0.219141,
2012-12-16, 00:13:04,VALID,1010.7,VALID,0,VALID,104,VALID,0,VALID,23.6161,VALID,134,VALID,0.640625,
2012-12-16, 00:14:04,VALID,1010.7,VALID,0,VALID,104,VALID,0,VALID,23.7135,VALID,124,VALID,0.627734,
2012-12-16, 00:15:04,VALID,1010.71,VALID,0,VALID,104,VALID,0,VALID,23.7135,VALID,124,VALID,0.396875,
2012-12-16, 00:16:04,VALID,1010.73,VALID,0,VALID,104,VALID,0.112112,VALID,23.772,VALID,124,VALID,0.405469,
2012-12-16, 00:17:04,VALID,1010.73,VALID,0,VALID,104,VALID,0.112112,VALID,23.7117,VALID,124,VALID,0.386328,
2012-12-16, 00:18:04,VALID,1010.77,VALID,0,VALID,104,VALID,0.112112,VALID,23.7312,VALID,124,VALID,0.666016,
2012-12-16, 00:19:04,VALID,1010.77,VALID,0,VALID,104,VALID,0,VALID,23.772,VALID,142,VALID,0.655469,
2012-12-16, 00:20:04,VALID,1010.78,VALID,0,VALID,104,VALID,0.112112,VALID,23.7701,VALID,163,VALID,0.816797,
2012-12-16, 00:21:04,VALID,1010.83,VALID,0,VALID,104,VALID,0,VALID,23.772,VALID,162,VALID,0.682031,
2012-12-16, 00:22:04,VALID,1010.82,VALID,0,VALID,104,VALID,0.112112,VALID,23.7507,VALID,135,VALID,1.025,
2012-12-16, 00:23:04,VALID,1010.84,VALID,0,VALID,104,VALID,0.112112,VALID,23.7701,VALID,144,VALID,0.819531,
2012-12-16, 00:24:04,VALID,1010.83,VALID,0,VALID,104,VALID,0,VALID,23.7507,VALID,152,VALID,0.728125,
2012-12-16, 00:25:04,VALID,1010.85,VALID,0,VALID,104,VALID,0.112112,VALID,23.7896,VALID,148,VALID,0.413281,
2012-12-16, 00:26:04,VALID,1010.86,VALID,0,VALID,104,VALID,0.112112,VALID,23.8091,VALID,131,VALID,0.741016,
2012-12-16, 00:27:04,VALID,1010.84,VALID,0,VALID,104,VALID,0,VALID,23.8286,VALID,121,VALID,0.591016,
2012-12-16, 00:28:04,VALID,1010.83,VALID,0,VALID,104,VALID,0.112112,VALID,23.8091,VALID,100,VALID,1.07031,
2012-12-16, 00:29:04,VALID,1010.81,VALID,0,VALID,104,VALID,0.112112,VALID,23.7896,VALID,121,VALID,0.607031,
2012-12-16, 00:30:04,VALID,1010.8,VALID,0,VALID,104,VALID,0,VALID,23.8091,VALID,120,VALID,1.03789,
2012-12-16, 00:31:04,VALID,1010.81,VALID,0,VALID,104,VALID,0.112112,VALID,23.7896,VALID,125,VALID,1.0293,
2012-12-16, 00:32:04,VALID,1010.78,VALID,0,VALID,104,VALID,0.112112,VALID,23.8091,VALID,124,VALID,0.960156,
2012-12-16, 00:33:04,VALID,1010.78,VALID,0,VALID,104,VALID,0.112112,VALID,23.8091,VALID,99,VALID,0.6,
2012-12-16, 00:34:04,VALID,1010.78,VALID,0,VALID,104,VALID,0.112112,VALID,23.8286,VALID,133,VALID,0.764844,
2012-12-16, 00:35:04,VALID,1010.79,VALID,0,VALID,104,VALID,0.112112,VALID,23.8286,VALID,124,VALID,0.61875,
2012-12-16, 00:36:04,VALID,1010.76,VALID,0,VALID,104,VALID,0,VALID,23.8304,VALID,100,VALID,0.808594,
2012-12-16, 00:37:04,VALID,1010.78,VALID,0,VALID,104,VALID,0.112112,VALID,23.8286,VALID,115,VALID,0.6625,
2012-12-16, 00:38:04,VALID,1010.74,VALID,0,VALID,104,VALID,0.112112,VALID,23.8286,VALID,128,VALID,0.786719,
2012-12-16, 00:39:04,VALID,1010.76,VALID,0,VALID,104,VALID,0,VALID,23.8286,VALID,112,VALID,0.548047,
2012-12-16, 00:40:04,VALID,1010.76,VALID,0,VALID,104,VALID,0,VALID,23.8286,VALID,90,VALID,0.923047,
2012-12-16, 00:41:04,VALID,1010.73,VALID,0,VALID,104,VALID,0.112112,VALID,23.8481,VALID,107,VALID,0.651953,
2012-12-16, 00:42:04,VALID,1010.7,VALID,0,VALID,104,VALID,0.112112,VALID,23.8676,VALID,111,VALID,0.569922,
2012-12-16, 00:43:04,VALID,1010.68,VALID,0.5,VALID,104,VALID,0.112112,VALID,23.8481,VALID,133,VALID,0.717578,
2012-12-16, 00:44:04,VALID,1010.66,VALID,0,VALID,104,VALID,0.112112,VALID,23.8481,VALID,107,VALID,1.01367,
2012-12-16, 00:45:04,VALID,1010.65,VALID,0,VALID,104,VALID,0.112112,VALID,23.8481,VALID,118,VALID,1.04336,
2012-12-16, 00:46:04,VALID,1010.63,VALID,0,VALID,104,VALID,0,VALID,23.8481,VALID,116,VALID,0.669531,
2012-12-16, 00:47:04,VALID,1010.59,VALID,0,VALID,104,VALID,0.112112,VALID,23.8481,VALID,123,VALID,1.17031,
2012-12-16, 00:48:04,VALID,1010.56,VALID,0,VALID,104,VALID,0.112112,VALID,23.8481,VALID,134,VALID,0.794141,
2012-12-16, 00:49:04,VALID,1010.52,VALID,0,VALID,104,VALID,0.112112,VALID,23.8676,VALID,132,VALID,0.651953,
2012-12-16, 00:50:04,VALID,1010.49,VALID,0,VALID,104,VALID,0.112112,VALID,23.8676,VALID,147,VALID,0.771484,
2012-12-16, 00:51:04,VALID,1010.49,VALID,0,VALID,104,VALID,0.112112,VALID,23.8676,VALID,149,VALID,1.22148,
2012-12-16, 00:52:04,VALID,1010.44,VALID,0,VALID,104,VALID,0,VALID,23.9084,VALID,133,VALID,0.675,
2012-12-16, 00:53:04,VALID,1010.41,VALID,0,VALID,104,VALID,0.112112,VALID,23.9278,VALID,116,VALID,0.341406,
2012-12-16, 00:54:04,VALID,1010.39,VALID,0,VALID,104,VALID,0,VALID,23.9065,VALID,129,VALID,0.295312,
2012-12-16, 00:55:04,VALID,1010.37,VALID,0.5,VALID,104,VALID,0.112112,VALID,23.9065,VALID,117,VALID,0.594531,
2012-12-16, 00:56:04,VALID,1010.36,VALID,0,VALID,104,VALID,0.112112,VALID,23.8676,VALID,102,VALID,0.884375,
2012-12-16, 00:57:04,VALID,1010.37,VALID,0,VALID,104,VALID,0.112112,VALID,23.8658,VALID,102,VALID,0.607031,
2012-12-16, 00:58:04,VALID,1010.31,VALID,0,VALID,104,VALID,0.112112,VALID,23.9668,VALID,116,VALID,1.06133,
2012-12-16, 00:59:04,VALID,1010.3,VALID,0,VALID,104,VALID,0.112112,VALID,23.8871,VALID,116,VALID,0.569141,
2012-12-16, 01:00:04,VALID,1010.28,VALID,0,VALID,104,VALID,0.112112,VALID,23.9278,VALID,116,VALID,0.446484,
2012-12-16, 01:01:04,VALID,1010.25,VALID,0,VALID,104,VALID,0.112112,VALID,23.9278,VALID,116,VALID,0.330469,
2012-12-16, 01:02:04,VALID,1010.21,VALID,0,VALID,104,VALID,0.112112,VALID,23.9065,VALID,116,VALID,0.532031,
2012-12-16, 01:03:04,VALID,1010.18,VALID,0.5,VALID,104,VALID,0,VALID,23.9065,VALID,116,VALID,0.339453,
2012-12-16, 01:04:04,VALID,1010.17,VALID,0,VALID,104,VALID,0.112112,VALID,23.926,VALID,116,VALID,0.0503906,
2012-12-16, 01:05:04,VALID,1010.17,VALID,0,VALID,104,VALID,0.112112,VALID,23.926,VALID,116,VALID,0,
2012-12-16, 01:06:04,VALID,1010.16,VALID,0,VALID,104,VALID,0.112112,VALID,23.926,VALID,116,VALID,0.0378906,
2012-12-16, 01:07:04,VALID,1010.12,VALID,0,VALID,104,VALID,0.112112,VALID,23.926,VALID,116,VALID,0.015625,
2012-12-16, 01:08:04,VALID,1010.14,VALID,0,VALID,104,VALID,0.112112,VALID,23.926,VALID,116,VALID,0.00273437,
2012-12-16, 01:09:04,VALID,1010.09,VALID,0.5,VALID,104,VALID,0,VALID,23.926,VALID,116,VALID,0,
2012-12-16, 01:10:04,VALID,1010.11,VALID,0,VALID,104,VALID,0.112112,VALID,23.926,VALID,116,VALID,0.216797,
2012-12-16, 01:11:04,VALID,1010.07,VALID,0,VALID,104,VALID,0.112112,VALID,23.9455,VALID,116,VALID,0.271484,
2012-12-16, 01:12:04,VALID,1010.11,VALID,0,VALID,104,VALID,0.112112,VALID,23.9863,VALID,116,VALID,0.201562,
2012-12-16, 01:13:04,VALID,1010.07,VALID,0,VALID,104,VALID,0,VALID,23.9668,VALID,106,VALID,0.714063,
2012-12-16, 01:14:04,VALID,1010.07,VALID,0,VALID,104,VALID,0,VALID,23.9863,VALID,98,VALID,0.586719,
2012-12-16, 01:15:04,VALID,1010.07,VALID,0,VALID,104,VALID,0,VALID,23.9668,VALID,99,VALID,0.548828,
2012-12-16, 01:16:04,VALID,1010.04,VALID,0.5,VALID,104,VALID,0.112112,VALID,23.9668,VALID,98,VALID,0.371875,
2012-12-16, 01:17:04,VALID,1010.01,VALID,0,VALID,104,VALID,0.112112,VALID,23.9455,VALID,98,VALID,0.585156,
2012-12-16, 01:18:04,VALID,1009.97,VALID,0,VALID,104,VALID,0.112112,VALID,23.9455,VALID,98,VALID,0.537891,
2012-12-16, 01:19:04,VALID,1009.94,VALID,0,VALID,104,VALID,0.112112,VALID,23.9455,VALID,98,VALID,0.317578,
2012-12-16, 01:20:04,VALID,1009.93,VALID,0,VALID,104,VALID,0.112112,VALID,23.9473,VALID,99,VALID,0.248437,
2012-12-16, 01:21:04,VALID,1009.94,VALID,0,VALID,104,VALID,0,VALID,23.9863,VALID,98,VALID,0.545313,
2012-12-16, 01:22:04,VALID,1009.94,VALID,0,VALID,104,VALID,0.112112,VALID,23.9845,VALID,98,VALID,0.648828,
2012-12-16, 01:23:04,VALID,1009.9,VALID,0,VALID,104,VALID,0.112112,VALID,23.926,VALID,85,VALID,0.861719,
2012-12-16, 01:24:04,VALID,1009.9,VALID,0.5,VALID,104,VALID,0,VALID,23.926,VALID,93,VALID,0.908203,
2012-12-16, 01:25:04,VALID,1009.89,VALID,0,VALID,104,VALID,0,VALID,23.9668,VALID,93,VALID,0.469531,
2012-12-16, 01:26:04,VALID,1009.85,VALID,0,VALID,104,VALID,0.112112,VALID,23.965,VALID,93,VALID,0.317578,
2012-12-16, 01:27:04,VALID,1009.86,VALID,0,VALID,104,VALID,0.112112,VALID,23.9455,VALID,93,VALID,0.3625,
2012-12-16, 01:28:04,VALID,1009.84,VALID,0,VALID,104,VALID,0.112112,VALID,23.9455,VALID,94,VALID,0.503125,
2012-12-16, 01:29:04,VALID,1009.87,VALID,0,VALID,104,VALID,0.112112,VALID,23.9455,VALID,91,VALID,0.736328,
2012-12-16, 01:30:04,VALID,1009.86,VALID,0.5,VALID,104,VALID,0.112112,VALID,23.965,VALID,76,VALID,0.733203,
2012-12-16, 01:31:04,VALID,1009.81,VALID,0,VALID,104,VALID,0,VALID,23.9686,VALID,75,VALID,0.537891,
2012-12-16, 01:32:04,VALID,1009.8,VALID,0,VALID,104,VALID,0,VALID,23.9473,VALID,76,VALID,0.552734,
2012-12-16, 01:33:04,VALID,1009.75,VALID,0,VALID,104,VALID,0,VALID,23.9473,VALID,75,VALID,0.628125,
2012-12-16, 01:34:04,VALID,1009.74,VALID,0,VALID,104,VALID,0,VALID,23.9668,VALID,51,VALID,0.709766,
2012-12-16, 01:35:04,VALID,1009.7,VALID,0,VALID,104,VALID,0,VALID,23.9084,VALID,50,VALID,1.03516,
2012-12-16, 01:36:04,VALID,1009.7,VALID,0,VALID,104,VALID,0,VALID,23.9102,VALID,51,VALID,0.225,
2012-12-16, 01:37:04,VALID,1009.68,VALID,0,VALID,104,VALID,0,VALID,23.9084,VALID,51,VALID,0.336719,
2012-12-16, 01:38:04,VALID,1009.63,VALID,0,VALID,104,VALID,0,VALID,23.8889,VALID,51,VALID,0.201562,
2012-12-16, 01:39:04,VALID,1009.6,VALID,0.5,VALID,104,VALID,0,VALID,23.9297,VALID,51,VALID,0.186719,
2012-12-16, 01:40:04,VALID,1009.59,VALID,0,VALID,104,VALID,0,VALID,23.9084,VALID,51,VALID,0.0597656,
2012-12-16, 01:41:04,VALID,1009.57,VALID,0,VALID,104,VALID,0,VALID,23.9102,VALID,51,VALID,0,
2012-12-16, 01:42:04,VALID,1009.56,VALID,0,VALID,104,VALID,0,VALID,23.9102,VALID,51,VALID,0.230859,
2012-12-16, 01:43:04,VALID,1009.53,VALID,0,VALID,104,VALID,0,VALID,23.9491,VALID,51,VALID,0,
2012-12-16, 01:44:04,VALID,1009.51,VALID,0,VALID,104,VALID,0,VALID,23.9102,VALID,51,VALID,0.577344,
2012-12-16, 01:45:04,VALID,1009.5,VALID,0,VALID,104,VALID,0,VALID,23.9084,VALID,51,VALID,0.428125,
2012-12-16, 01:46:04,VALID,1009.49,VALID,0,VALID,104,VALID,0.112112,VALID,23.926,VALID,51,VALID,0.300391,
2012-12-16, 01:47:04,VALID,1009.44,VALID,0,VALID,104,VALID,0.112112,VALID,23.9065,VALID,51,VALID,0.0328125,
2012-12-16, 01:48:04,VALID,1009.38,VALID,0,VALID,104,VALID,0.112112,VALID,23.926,VALID,49,VALID,0.105859,
2012-12-16, 01:49:04,VALID,1009.36,VALID,0,VALID,104,VALID,0.112112,VALID,23.9065,VALID,50,VALID,0,
2012-12-16, 01:50:04,VALID,1009.34,VALID,0,VALID,104,VALID,0,VALID,23.9278,VALID,50,VALID,0,
2012-12-16, 01:51:04,VALID,1009.31,VALID,0,VALID,104,VALID,0,VALID,23.9065,VALID,51,VALID,0,
2012-12-16, 01:52:04,VALID,1009.31,VALID,0,VALID,104,VALID,0.112112,VALID,23.9455,VALID,51,VALID,0,
2012-12-16, 01:53:04,VALID,1009.28,VALID,0,VALID,104,VALID,0.112112,VALID,23.926,VALID,51,VALID,0,
2012-12-16, 01:54:04,VALID,1009.26,VALID,0.5,VALID,104,VALID,0.112112,VALID,23.9242,VALID,51,VALID,0,
2012-12-16, 01:55:04,VALID,1009.25,VALID,0,VALID,104,VALID,0.112112,VALID,23.926,VALID,51,VALID,0,
2012-12-16, 01:56:04,VALID,1009.23,VALID,0,VALID,104,VALID,0,VALID,23.9455,VALID,51,VALID,0,
2012-12-16, 01:57:04,VALID,1009.22,VALID,0,VALID,104,VALID,0.112112,VALID,23.9065,VALID,51,VALID,0,
2012-12-16, 01:58:04,VALID,1009.21,VALID,0,VALID,104,VALID,0,VALID,23.926,VALID,51,VALID,0,
2012-12-16, 01:59:04,VALID,1009.23,VALID,0,VALID,104,VALID,0,VALID,23.926,VALID,51,VALID,0,
2012-12-16, 02:00:04,VALID,1009.24,VALID,0,VALID,104,VALID,0.112112,VALID,23.9455,VALID,51,VALID,0.673437,
2012-12-16, 02:01:04,VALID,1009.24,VALID,0,VALID,104,VALID,0.112112,VALID,23.926,VALID,51,VALID,0.580469,
2012-12-16, 02:02:04,VALID,1009.22,VALID,0,VALID,104,VALID,0,VALID,23.9455,VALID,52,VALID,0.565625,
2012-12-16, 02:03:04,VALID,1009.19,VALID,0,VALID,104,VALID,0.112112,VALID,23.9455,VALID,110,VALID,0.804688,
2012-12-16, 02:04:04,VALID,1009.2,VALID,0,VALID,104,VALID,0.112112,VALID,23.9455,VALID,111,VALID,0.383984,
2012-12-16, 02:05:04,VALID,1009.19,VALID,0,VALID,104,VALID,0,VALID,23.965,VALID,108,VALID,0.740234,
2012-12-16, 02:06:04,VALID,1009.2,VALID,0,VALID,104,VALID,0.112112,VALID,23.965,VALID,107,VALID,0.544531,
2012-12-16, 02:07:04,VALID,1009.22,VALID,0,VALID,104,VALID,0,VALID,23.965,VALID,116,VALID,1.17773,
2012-12-16, 02:08:04,VALID,1009.22,VALID,0,VALID,104,VALID,0,VALID,23.9455,VALID,110,VALID,0.699609,
2012-12-16, 02:09:04,VALID,1009.22,VALID,0,VALID,104,VALID,0.112112,VALID,23.9863,VALID,79,VALID,0.986328,
2012-12-16, 02:10:04,VALID,1009.23,VALID,0,VALID,104,VALID,0.112112,VALID,23.965,VALID,79,VALID,1.01445,
2012-12-16, 02:11:04,VALID,1009.22,VALID,0,VALID,104,VALID,0,VALID,23.965,VALID,86,VALID,1.03203,
2012-12-16, 02:12:04,VALID,1009.18,VALID,0,VALID,104,VALID,0.112112,VALID,23.9455,VALID,84,VALID,0.619141,
2012-12-16, 02:13:04,VALID,1009.21,VALID,0,VALID,104,VALID,0,VALID,23.965,VALID,98,VALID,0.717188,
2012-12-16, 02:14:04,VALID,1009.2,VALID,0.5,VALID,104,VALID,0.112112,VALID,23.9632,VALID,99,VALID,0.427344,
2012-12-16, 02:15:04,VALID,1009.18,VALID,0,VALID,104,VALID,0.112112,VALID,24.004,VALID,99,VALID,0.258984,
2012-12-16, 02:16:04,VALID,1009.16,VALID,0,VALID,104,VALID,0,VALID,24.0058,VALID,97,VALID,0.707422,
2012-12-16, 02:17:04,VALID,1009.15,VALID,0,VALID,104,VALID,0,VALID,23.9863,VALID,119,VALID,0.676953,
2012-12-16, 02:18:04,VALID,1009.13,VALID,0,VALID,104,VALID,0,VALID,23.9863,VALID,120,VALID,0.469922,
2012-12-16, 02:19:04,VALID,1009.09,VALID,0,VALID,104,VALID,0,VALID,23.9863,VALID,120,VALID,0.442187,
2012-12-16, 02:20:04,VALID,1009.07,VALID,0,VALID,104,VALID,0,VALID,23.9668,VALID,120,VALID,0.358203,
2012-12-16, 02:21:04,VALID,1009.05,VALID,0,VALID,104,VALID,0,VALID,23.9455,VALID,122,VALID,0.408984,
2012-12-16, 02:22:04,VALID,1009.04,VALID,0,VALID,104,VALID,0,VALID,23.9455,VALID,145,VALID,0.951953,
2012-12-16, 02:23:04,VALID,1009.01,VALID,0,VALID,104,VALID,0,VALID,23.9881,VALID,140,VALID,0.9,
2012-12-16, 02:24:04,VALID,1009.01,VALID,0,VALID,104,VALID,0,VALID,24.0253,VALID,140,VALID,0.648438,
2012-12-16, 02:25:04,VALID,1008.99,VALID,0,VALID,104,VALID,0,VALID,23.9278,VALID,132,VALID,0.782422,
2012-12-16, 02:26:04,VALID,1008.99,VALID,0,VALID,104,VALID,0,VALID,23.9668,VALID,106,VALID,0.473828,
2012-12-16, 02:27:04,VALID,1008.95,VALID,0,VALID,104,VALID,0,VALID,23.9668,VALID,122,VALID,0.688672,
2012-12-16, 02:28:04,VALID,1008.94,VALID,0,VALID,104,VALID,0,VALID,23.9863,VALID,148,VALID,0.43125,
2012-12-16, 02:29:04,VALID,1008.95,VALID,0,VALID,104,VALID,0,VALID,23.9881,VALID,165,VALID,0.623047,
2012-12-16, 02:30:04,VALID,1008.91,VALID,0,VALID,104,VALID,0,VALID,23.9863,VALID,154,VALID,0.519922,
2012-12-16, 02:31:04,VALID,1008.9,VALID,0,VALID,104,VALID,0,VALID,23.9845,VALID,159,VALID,0.888281,
2012-12-16, 02:32:04,VALID,1008.89,VALID,0,VALID,104,VALID,0.112112,VALID,23.9455,VALID,153,VALID,0.501172,
2012-12-16, 02:33:04,VALID,1008.92,VALID,0,VALID,104,VALID,0,VALID,23.965,VALID,139,VALID,1.04688,
2012-12-16, 02:34:04,VALID,1008.92,VALID,0,VALID,104,VALID,0.112112,VALID,23.965,VALID,129,VALID,0.796875,
2012-12-16, 02:35:04,VALID,1008.91,VALID,0,VALID,104,VALID,0.112112,VALID,23.965,VALID,129,VALID,0.479297,
2012-12-16, 02:36:04,VALID,1008.94,VALID,0,VALID,104,VALID,0.112112,VALID,23.965,VALID,129,VALID,0.647656,
2012-12-16, 02:37:04,VALID,1008.92,VALID,0,VALID,104,VALID,0.112112,VALID,24.004,VALID,110,VALID,0.658984,
2012-12-16, 02:38:04,VALID,1008.91,VALID,0,VALID,104,VALID,0,VALID,24.004,VALID,104,VALID,0.524609,
2012-12-16, 02:39:04,VALID,1008.92,VALID,0,VALID,104,VALID,0.112112,VALID,24.004,VALID,104,VALID,0.177734,
2012-12-16, 02:40:04,VALID,1008.9,VALID,0,VALID,104,VALID,0.112112,VALID,24.0235,VALID,98,VALID,0.521484,
2012-12-16, 02:41:04,VALID,1008.9,VALID,0,VALID,104,VALID,0.112112,VALID,24.004,VALID,87,VALID,0.70625,
2012-12-16, 02:42:04,VALID,1008.92,VALID,0,VALID,104,VALID,0.112112,VALID,23.9845,VALID,61,VALID,0.867969,
2012-12-16, 02:43:04,VALID,1008.94,VALID,0,VALID,104,VALID,0.112112,VALID,23.965,VALID,61,VALID,0.788281,
2012-12-16, 02:44:04,VALID,1008.92,VALID,0,VALID,104,VALID,0.112112,VALID,23.965,VALID,58,VALID,0.608594,
2012-12-16, 02:45:04,VALID,1008.93,VALID,0,VALID,104,VALID,0.112112,VALID,23.965,VALID,51,VALID,0.616016,
2012-12-16, 02:46:04,VALID,1008.91,VALID,0,VALID,104,VALID,0,VALID,23.9686,VALID,42,VALID,0.557813,
2012-12-16, 02:47:04,VALID,1008.92,VALID,0,VALID,104,VALID,0,VALID,23.9278,VALID,28,VALID,0.707031,
2012-12-16, 02:48:04,VALID,1008.88,VALID,0,VALID,104,VALID,0,VALID,23.9084,VALID,26,VALID,0.126172,
2012-12-16, 02:49:04,VALID,1008.88,VALID,0,VALID,104,VALID,0,VALID,23.9473,VALID,26,VALID,0.104687,
2012-12-16, 02:50:04,VALID,1008.88,VALID,0,VALID,104,VALID,0,VALID,23.9278,VALID,26,VALID,0.180469,
2012-12-16, 02:51:04,VALID,1008.84,VALID,0,VALID,104,VALID,0,VALID,23.9473,VALID,26,VALID,0.784766,
2012-12-16, 02:52:04,VALID,1008.83,VALID,0,VALID,104,VALID,0,VALID,23.8889,VALID,29,VALID,0.866016,
2012-12-16, 02:53:04,VALID,1008.85,VALID,0,VALID,104,VALID,0,VALID,23.8889,VALID,30,VALID,0.828906,
2012-12-16, 02:54:04,VALID,1008.81,VALID,0,VALID,104,VALID,0,VALID,23.9084,VALID,30,VALID,0.514844,
2012-12-16, 02:55:04,VALID,1008.83,VALID,0.5,VALID,104,VALID,0,VALID,23.9278,VALID,30,VALID,0.503125,
2012-12-16, 02:56:04,VALID,1008.8,VALID,0,VALID,104,VALID,0,VALID,23.9084,VALID,30,VALID,0.347266,
2012-12-16, 02:57:04,VALID,1008.76,VALID,0,VALID,104,VALID,0,VALID,23.8907,VALID,30,VALID,0.207813,
2012-12-16, 02:58:04,VALID,1008.74,VALID,0,VALID,104,VALID,0,VALID,23.8694,VALID,31,VALID,0.0316406,
2012-12-16, 02:59:04,VALID,1008.73,VALID,0,VALID,104,VALID,0,VALID,23.8694,VALID,30,VALID,0.0894531,
2012-12-16, 03:00:04,VALID,1008.71,VALID,0,VALID,104,VALID,0,VALID,23.8889,VALID,30,VALID,0.0359375,
2012-12-16, 03:01:04,VALID,1008.72,VALID,0,VALID,104,VALID,0,VALID,23.8889,VALID,30,VALID,0.320703,
2012-12-16, 03:02:04,VALID,1008.69,VALID,0,VALID,104,VALID,0,VALID,23.8694,VALID,30,VALID,0.00117188,
2012-12-16, 03:03:04,VALID,1008.7,VALID,0,VALID,104,VALID,0,VALID,23.8694,VALID,30,VALID,0.475,
2012-12-16, 03:04:04,VALID,1008.67,VALID,0,VALID,104,VALID,0,VALID,23.8694,VALID,30,VALID,0.0421875,
2012-12-16, 03:05:04,VALID,1008.64,VALID,0,VALID,104,VALID,0,VALID,23.8499,VALID,30,VALID,0,
2012-12-16, 03:06:04,VALID,1008.6,VALID,0,VALID,104,VALID,0,VALID,23.8304,VALID,30,VALID,0.124219,
2012-12-16, 03:07:04,VALID,1008.57,VALID,0,VALID,104,VALID,0,VALID,23.8694,VALID,30,VALID,0.337891,
2012-12-16, 03:08:04,VALID,1008.55,VALID,0,VALID,104,VALID,0,VALID,23.9084,VALID,29,VALID,0.417969,
2012-12-16, 03:09:04,VALID,1008.52,VALID,0,VALID,104,VALID,0,VALID,23.8694,VALID,29,VALID,0.279687,
2012-12-16, 03:10:04,VALID,1008.51,VALID,0,VALID,104,VALID,0,VALID,23.8694,VALID,29,VALID,0.513672,
2012-12-16, 03:11:04,VALID,1008.49,VALID,0,VALID,104,VALID,0,VALID,23.8481,VALID,29,VALID,0.0464844,
2012-12-16, 03:12:04,VALID,1008.46,VALID,0,VALID,104,VALID,0,VALID,23.8889,VALID,29,VALID,0.386719,
2012-12-16, 03:13:04,VALID,1008.46,VALID,0,VALID,104,VALID,0,VALID,23.8694,VALID,29,VALID,0.290625,
2012-12-16, 03:14:04,VALID,1008.45,VALID,0,VALID,104,VALID,0,VALID,23.8694,VALID,29,VALID,0.255859,
2012-12-16, 03:15:04,VALID,1008.42,VALID,0,VALID,104,VALID,0,VALID,23.8694,VALID,29,VALID,0.382031,
2012-12-16, 03:16:04,VALID,1008.4,VALID,0,VALID,104,VALID,0,VALID,23.8694,VALID,29,VALID,0.266016,
2012-12-16, 03:17:04,VALID,1008.38,VALID,0,VALID,104,VALID,0,VALID,23.8907,VALID,29,VALID,0.328906,
2012-12-16, 03:18:04,VALID,1008.38,VALID,0,VALID,104,VALID,0,VALID,23.8694,VALID,29,VALID,0.172266,
2012-12-16, 03:19:04,VALID,1008.38,VALID,0,VALID,104,VALID,0,VALID,23.8694,VALID,22,VALID,0.265625,
2012-12-16, 03:20:04,VALID,1008.36,VALID,0,VALID,104,VALID,0,VALID,23.8889,VALID,22,VALID,0.416406,
2012-12-16, 03:21:04,VALID,1008.34,VALID,0,VALID,104,VALID,0,VALID,23.8694,VALID,22,VALID,0.519922,
2012-12-16, 03:22:04,VALID,1008.34,VALID,0,VALID,104,VALID,0,VALID,23.8889,VALID,22,VALID,0.2625,
2012-12-16, 03:23:04,VALID,1008.31,VALID,0,VALID,104,VALID,0,VALID,23.8499,VALID,22,VALID,0.437109,
2012-12-16, 03:24:04,VALID,1008.32,VALID,0,VALID,104,VALID,0,VALID,23.8499,VALID,22,VALID,0,
2012-12-16, 03:25:04,VALID,1008.3,VALID,0,VALID,104,VALID,0,VALID,23.8694,VALID,22,VALID,0,
2012-12-16, 03:26:04,VALID,1008.3,VALID,0,VALID,104,VALID,0,VALID,23.8694,VALID,22,VALID,0,
2012-12-16, 03:27:04,VALID,1008.31,VALID,0,VALID,104,VALID,0,VALID,23.8889,VALID,22,VALID,0.213672,
2012-12-16, 03:28:04,VALID,1008.29,VALID,0,VALID,104,VALID,0,VALID,23.8712,VALID,22,VALID,0.171094,
2012-12-16, 03:29:04,VALID,1008.29,VALID,0,VALID,104,VALID,0,VALID,23.8109,VALID,22,VALID,0,
2012-12-16, 03:30:04,VALID,1008.25,VALID,0,VALID,104,VALID,0,VALID,23.8499,VALID,22,VALID,0,
2012-12-16, 03:31:04,VALID,1008.25,VALID,0,VALID,104,VALID,0.112112,VALID,23.8481,VALID,22,VALID,0,
2012-12-16, 03:32:04,VALID,1008.25,VALID,0,VALID,104,VALID,0.112112,VALID,23.8286,VALID,22,VALID,0.332422,
2012-12-16, 03:33:04,VALID,1008.26,VALID,0,VALID,104,VALID,0,VALID,23.8481,VALID,22,VALID,0.156641,
2012-12-16, 03:34:04,VALID,1008.24,VALID,0,VALID,104,VALID,0.112112,VALID,23.8286,VALID,22,VALID,0,
2012-12-16, 03:35:04,VALID,1008.25,VALID,0,VALID,104,VALID,0.112112,VALID,23.8286,VALID,22,VALID,0.291016,
2012-12-16, 03:36:04,VALID,1008.26,VALID,0,VALID,104,VALID,0,VALID,23.8286,VALID,21,VALID,0.307031,
2012-12-16, 03:37:04,VALID,1008.24,VALID,0,VALID,104,VALID,0,VALID,23.8286,VALID,22,VALID,0.319141,
2012-12-16, 03:38:04,VALID,1008.22,VALID,0,VALID,104,VALID,0.112112,VALID,23.8481,VALID,22,VALID,0.394922,
2012-12-16, 03:39:04,VALID,1008.22,VALID,0,VALID,104,VALID,0.112112,VALID,23.8694,VALID,22,VALID,0.291797,
2012-12-16, 03:40:04,VALID,1008.19,VALID,0,VALID,104,VALID,0.112112,VALID,23.8286,VALID,22,VALID,0.303125,
2012-12-16, 03:41:04,VALID,1008.2,VALID,0,VALID,104,VALID,0.112112,VALID,23.8481,VALID,22,VALID,0,
2012-12-16, 03:42:04,VALID,1008.21,VALID,0,VALID,104,VALID,0.112112,VALID,23.8481,VALID,22,VALID,0.0402344,
2012-12-16, 03:43:04,VALID,1008.21,VALID,0,VALID,104,VALID,0.112112,VALID,23.8481,VALID,22,VALID,0,
2012-12-16, 03:44:04,VALID,1008.23,VALID,0,VALID,104,VALID,0.112112,VALID,23.8676,VALID,22,VALID,0.00234375,
2012-12-16, 03:45:04,VALID,1008.17,VALID,0,VALID,104,VALID,0,VALID,23.8499,VALID,22,VALID,0.305859,
2012-12-16, 03:46:04,VALID,1008.2,VALID,0,VALID,104,VALID,0.112112,VALID,23.8286,VALID,22,VALID,0.397266,
2012-12-16, 03:47:04,VALID,1008.21,VALID,0,VALID,104,VALID,0.112112,VALID,23.8286,VALID,22,VALID,0.115234,
2012-12-16, 03:48:04,VALID,1008.22,VALID,0,VALID,104,VALID,0,VALID,23.8481,VALID,22,VALID,0.000390625,
2012-12-16, 03:49:04,VALID,1008.22,VALID,0,VALID,104,VALID,0,VALID,23.8499,VALID,22,VALID,0.141406,